[[{"header":{"parameterUnit":"m.s-1","parameterCategory":1,"la1":30.2991,"la2":30.254,"lo1":-89.0895,"lo2":-89.0444,"dy":0.0017,"dx":0.0017,"nx":28,"ny":28,"refTime":"2024-04-21T03:00:00:Z","depth":0,"parameterNumber":2,"parameterNumberName":"U-component_of_WINDS"},"data":[0,0,0,0,0,0,0,0,0,0,0,0,0,0,0,0,0,0,0,0,0,0,0,0,0,0,0,0,0,0,0,0,0,0,0,0,0,0,0,0,0,0,0,0,0,0,0,0,0,0,0,0,0,0,0,0,0,0,0.1843,0.1843,0,0.1763,0.1762,0.1761,0.1749,0.175,0.175,0.1751,0.1665,0.1662,0.1659,0,0,0,0,0,0,0,0,0,0,0,0,0,0.1984,0.1981,0.1843,0.1842,0.1841,0.1763,0.1762,0.1761,0.1749,0.175,0.175,0.1751,0.1666,0.1663,0.1659,0,0,0,0,0,0,0,0,0,0,0,0,0,0.1915,0.198,0.1844,0.1826,0.1824,0.1763,0.1762,0.1761,0.1749,0.175,0.1751,0.1752,0.1667,0.1663,0.1659,0.1609,0,0,0.1645,0.1643,0,0,0,0,0,0,0,0,0.1919,0.191,0.183,0.1827,0.1824,0.1767,0.178,0.171,0.1748,0.1777,0.1751,0.1752,0.1698,0.1691,0.1673,0.1605,0.1601,0.1645,0.1642,0.164,0.1639,0,0,0,0,0,0,0,0.1924,0.1913,0.1811,0.1828,0.1825,0.1821,0.1813,0.1767,0.1732,0.1775,0.1773,0.1764,0.1697,0.1678,0.1671,0.16,0.1645,0.1641,0.1638,0.1636,0.1487,0.1485,0,0,0,0,0,0,0.1932,0.1917,0.1814,0.1809,0.1875,0.1818,0.1808,0.1784,0.1733,0.1726,0.1763,0.1764,0.1685,0.1677,0.1668,0.1606,0.164,0.1636,0.1633,0.1488,0.1486,0.1485,0,0,0,0,0,0,0.1935,0.1923,0.1817,0.1863,0.1849,0.1814,0.1787,0.1782,0.1763,0.1724,0.1718,0.1751,0.1685,0.1674,0.1624,0.1603,0.1634,0.163,0.1489,0.1487,0.1486,0.1482,0,0,0,0,0,0,0.1939,0.1924,0.1906,0.1863,0.1847,0.1775,0.1786,0.178,0.1756,0.1756,0.171,0.1704,0.1685,0.1631,0.162,0.1597,0.1626,0.1491,0.1489,0.1486,0.1484,0.148,0.1477,0,0,0,0,0,0.1944,0.1907,0.1905,0.1892,0.1823,0.1774,0.1765,0.1745,0.1754,0.1735,0.171,0.1705,0.1608,0.1626,0.1613,0.1589,0.1492,0.1489,0.1486,0.1485,0.1481,0.1477,0,0,0,0,0,0,0.1947,0.1901,0.1898,0.1846,0.1814,0.1772,0.1747,0.1741,0.1705,0.1706,0.1683,0.1673,0.1623,0.1601,0.1622,0.1538,0.1551,0.1545,0.1554,0.1549,0.1546,0.1552,0.1623,0,0,0,0,0,0.1942,0.1907,0.1868,0.1826,0.1811,0.1782,0.1759,0.1747,0.1713,0.1699,0.167,0.1636,0.1598,0.1573,0.1535,0.1481,0.1471,0.1459,0.1455,0.1453,0.1448,0.1417,0.1411,0.1475,0.1475,0.1475,0,0,0.193,0.1901,0.188,0.1826,0.18,0.1763,0.177,0.1731,0.1703,0.1693,0.1643,0.1621,0.1582,0.1529,0.1504,0.1509,0.1428,0.1449,0.1447,0.1443,0.1413,0.1407,0.1401,0.1473,0.1474,0.1474,0,0,0.189,0.1865,0.1827,0.1801,0.1762,0.1743,0.1734,0.1693,0.1678,0.1629,0.162,0.1586,0.1521,0.1493,0.147,0.142,0.1414,0.1409,0.139,0.136,0.1355,0.1351,0.1332,0.1325,0.1404,0.1404,0.1404,0,0.188,0.1825,0.1807,0.1769,0.1745,0.1735,0.1696,0.1671,0.1621,0.1605,0.1612,0.1529,0.1502,0.1442,0.1431,0.1413,0.1401,0.1413,0.1358,0.1353,0.1348,0.133,0.1323,0.1404,0.1404,0.1404,0.1404,0,0.1814,0.1776,0.175,0.1703,0.1677,0.1638,0.1613,0.1588,0.1579,0.1559,0.1509,0.1476,0.1432,0.1417,0.1407,0.1356,0.136,0.1363,0.1374,0.1342,0.1324,0.1317,0.1403,0.1403,0.1403,0.1403,0,0,0.1771,0.1716,0.1707,0.1685,0.1642,0.1612,0.1573,0.1531,0.1509,0.1476,0.1441,0.1387,0.1389,0.1363,0.135,0.1324,0.1286,0.133,0.1329,0.1322,0.1226,0.1223,0.1215,0.1283,0.1281,0.128,0.1229,0,0.1724,0.1654,0.1638,0.1578,0.1542,0.1533,0.1499,0.1468,0.1449,0.1415,0.1394,0.1355,0.1362,0.1346,0.1321,0.1296,0.1266,0.13,0.1249,0.1247,0.1257,0.1206,0.1203,0.1156,0.1222,0.1221,0.122,0,0.166,0.1626,0.1563,0.1524,0.1509,0.1478,0.1438,0.1407,0.1372,0.136,0.1332,0.1321,0.1279,0.1295,0.1236,0.1259,0.1237,0.1222,0.122,0.1213,0.123,0.1196,0.114,0.1132,0.1209,0.121,0.1211,0,0.1633,0.1571,0.1525,0.1508,0.1462,0.1441,0.1421,0.1387,0.1363,0.1328,0.1312,0.1272,0.125,0.1219,0.1198,0.1212,0.114,0.1154,0.1128,0.1128,0.1111,0.1112,0.105,0.1101,0.1101,0.1101,0.1101,0,0.1581,0.1542,0.1513,0.1484,0.144,0.1422,0.1379,0.1358,0.1329,0.1295,0.1286,0.1254,0.123,0.1195,0.1179,0.1132,0.1122,0.111,0.1106,0.111,0.1111,0.1093,0.1095,0.1099,0.11,0.11,0.11,0,0.1542,0.1521,0.147,0.1432,0.1422,0.1391,0.1358,0.1329,0.1311,0.1269,0.1258,0.1228,0.1187,0.1164,0.1112,0.1101,0.1048,0.1046,0.106,0.1057,0.1031,0.1033,0.0954,0.0942,0.1003,0.1002,0.1002,0,0.1509,0.148,0.1439,0.1416,0.1396,0.136,0.1336,0.1317,0.1292,0.125,0.1226,0.1185,0.115,0.1085,0.1058,0.1018,0.1014,0.0989,0.1007,0.1012,0.1011,0.1012,0.1009,0.0985,0.0984,0.0984,0.0983,0,0.1453,0.1445,0.141,0.1373,0.1344,0.1313,0.1282,0.1264,0.124,0.1212,0.117,0.1144,0.1091,0.1049,0.1008,0.0986,0.098,0.0978,0.0969,0.0972,0.098,0.0974,0.1049,0.0979,0.098,0.098,0.098,0.098,0.1415,0.1388,0.1355,0.1317,0.1293,0.1264,0.1236,0.1214,0.1179,0.1136,0.1127,0.1082,0.1048,0.0992,0.0969,0.0933,0.0938,0.0926,0.0922,0.0919,0.0917,0.0988,0.0926,0.0926,0.0926,0.0926,0.0926,0,0.1357,0.1336,0.1301,0.1259,0.1229,0.1229,0.1195,0.1169,0.1131,0.11,0.1067,0.1019,0.0979,0.095,0.0908,0.0885,0.0882,0.0875,0.0875,0.087,0.0916,0.0927,0.0879,0.0879,0.0879,0.0879,0.0879,0.0879,0.1323,0.1277,0.1264,0.1206,0.1185,0.1142,0.1122,0.1096,0.1071,0.1018,0.0985,0.0967,0.0937,0.0894,0.0857,0.0849,0.0834,0.0827,0.0819,0.0862,0.0867,0.0872,0.0882,0.0824,0.0824,0.0775,0.0775,0.0774]},{"header":{"parameterUnit":"m.s-1","parameterCategory":1,"la1":30.2991,"la2":30.254,"lo1":-89.0895,"lo2":-89.0444,"dy":0.0017,"dx":0.0017,"nx":28,"ny":28,"refTime":"2024-04-21T03:00:00:Z","depth":0,"parameterNumber":3,"parameterNumberName":"V-component_of_WINDS"},"data":[0,0,0,0,0,0,0,0,0,0,0,0,0,0,0,0,0,0,0,0,0,0,0,0,0,0,0,0,0,0,0,0,0,0,0,0,0,0,0,0,0,0,0,0,0,0,0,0,0,0,0,0,0,0,0,0,0,0,-6.2538,-6.2538,0,-6.2595,-6.2596,-6.2596,-6.2467,-6.2463,-6.2459,-6.2455,-6.2508,-6.2513,-6.2518,0,0,0,0,0,0,0,0,0,0,0,0,0,-6.231,-6.2315,-6.2538,-6.2538,-6.2539,-6.2595,-6.2596,-6.2597,-6.2467,-6.2462,-6.2457,-6.2453,-6.2506,-6.2513,-6.2519,0,0,0,0,0,0,0,0,0,0,0,0,0,-6.2393,-6.2317,-6.2537,-6.2482,-6.2477,-6.2595,-6.2596,-6.2597,-6.2469,-6.2462,-6.2456,-6.245,-6.2504,-6.2512,-6.252,-6.2693,0,0,-6.2544,-6.2547,0,0,0,0,0,0,0,0,-6.2388,-6.2401,-6.2489,-6.2486,-6.2481,-6.2518,-6.2535,-6.2629,-6.247,-6.2472,-6.2454,-6.2447,-6.2516,-6.2522,-6.2547,-6.2695,-6.2697,-6.2545,-6.2549,-6.2553,-6.2555,0,0,0,0,0,0,0,-6.2382,-6.2398,-6.256,-6.249,-6.2485,-6.2452,-6.2456,-6.2552,-6.2528,-6.2471,-6.2462,-6.2471,-6.2512,-6.2539,-6.2547,-6.2698,-6.2544,-6.2551,-6.2556,-6.2559,-6.2992,-6.2998,0,0,0,0,0,0,-6.2385,-6.2394,-6.2558,-6.2562,-6.2418,-6.2461,-6.2466,-6.2512,-6.2526,-6.2523,-6.2476,-6.2464,-6.2529,-6.2538,-6.2548,-6.2752,-6.2553,-6.256,-6.2565,-6.2985,-6.2993,-6.3001,0,0,0,0,0,0,-6.238,-6.2401,-6.2556,-6.2475,-6.2493,-6.2471,-6.2524,-6.2516,-6.2543,-6.253,-6.2524,-6.2509,-6.2524,-6.2537,-6.2658,-6.2752,-6.2564,-6.2571,-6.2977,-6.2988,-6.2997,-6.3162,0,0,0,0,0,0,-6.2374,-6.24,-6.2467,-6.2478,-6.2498,-6.2667,-6.253,-6.2522,-6.2558,-6.2543,-6.2559,-6.2556,-6.252,-6.2647,-6.2666,-6.276,-6.2577,-6.2969,-6.2982,-6.2994,-6.3148,-6.3177,-6.3201,0,0,0,0,0,-6.2367,-6.2509,-6.2471,-6.2491,-6.2581,-6.2673,-6.2684,-6.2642,-6.2566,-6.2632,-6.2624,-6.2555,-6.2739,-6.2661,-6.2681,-6.2779,-6.2963,-6.2978,-6.2993,-6.3136,-6.3171,-6.32,0,0,0,0,0,0,-6.2507,-6.251,-6.2467,-6.2618,-6.2647,-6.2651,-6.2733,-6.268,-6.2729,-6.2713,-6.2657,-6.2662,-6.2794,-6.2797,-6.271,-6.2947,-6.2838,-6.2858,-6.294,-6.2973,-6.2999,-6.2995,-6.2584,0,0,0,0,0,-6.2557,-6.2633,-6.263,-6.2763,-6.278,-6.2755,-6.2793,-6.2759,-6.2785,-6.2796,-6.2796,-6.2823,-6.2886,-6.2929,-6.2987,-6.3148,-6.3149,-6.3225,-6.3251,-6.3273,-6.3291,-6.3377,-6.3411,-6.305,-6.305,-6.305,0,0,-6.2658,-6.2668,-6.272,-6.2792,-6.281,-6.2889,-6.2766,-6.2854,-6.2911,-6.2808,-6.2924,-6.2925,-6.2951,-6.3093,-6.3155,-6.31,-6.3391,-6.3292,-6.331,-6.3316,-6.3396,-6.343,-6.346,-6.3061,-6.3059,-6.3057,0,0,-6.2883,-6.2899,-6.3013,-6.3034,-6.3063,-6.3046,-6.3073,-6.3086,-6.3084,-6.3199,-6.3123,-6.319,-6.3301,-6.3323,-6.3348,-6.3583,-6.3522,-6.3603,-6.3741,-6.3826,-6.3854,-6.3879,-6.3963,-6.3994,-6.3621,-6.3621,-6.3622,0,-6.3005,-6.3123,-6.3077,-6.3172,-6.3206,-6.3118,-6.3232,-6.3254,-6.33,-6.3325,-6.3263,-6.3401,-6.3412,-6.3558,-6.3616,-6.3639,-6.3668,-6.3601,-6.3854,-6.3878,-6.3901,-6.3981,-6.4013,-6.3631,-6.363,-6.3629,-6.3628,0,-6.3271,-6.3354,-6.3442,-6.3492,-6.3535,-6.3639,-6.3608,-6.3657,-6.3618,-6.3607,-6.3725,-6.3735,-6.3794,-6.3826,-6.3789,-6.3968,-6.3933,-6.3864,-6.3753,-6.3946,-6.402,-6.405,-6.3645,-6.3642,-6.3639,-6.3636,0,0,-6.3587,-6.3611,-6.3644,-6.3666,-6.3693,-6.3755,-6.3854,-6.3914,-6.3958,-6.3992,-6.4074,-6.417,-6.4106,-6.4136,-6.4099,-6.4174,-6.436,-6.4095,-6.4094,-6.4144,-6.4558,-6.4611,-6.4647,-6.4319,-6.4325,-6.4329,-6.4556,0,-6.3811,-6.3984,-6.3946,-6.4116,-6.4192,-6.411,-6.4196,-6.4221,-6.4213,-6.4275,-6.4264,-6.4334,-6.4244,-6.4262,-6.4331,-6.4323,-6.4442,-6.4305,-6.4394,-6.4397,-6.4391,-6.4686,-6.4742,-6.4956,-6.4585,-6.459,-6.4593,0,-6.4095,-6.4144,-6.4323,-6.4338,-6.4368,-6.4447,-6.4499,-6.4559,-6.4585,-6.4574,-6.4608,-6.4557,-6.4654,-6.4542,-6.4675,-6.4583,-6.4616,-6.4617,-6.4625,-6.4632,-6.4508,-6.4702,-6.5023,-6.5056,-6.4638,-6.4635,-6.4631,0,-6.4309,-6.4418,-6.454,-6.4561,-6.4582,-6.4639,-6.465,-6.467,-6.4708,-6.4753,-6.4777,-6.4832,-6.4862,-6.4905,-6.487,-6.4792,-6.5008,-6.4893,-6.5001,-6.5002,-6.5051,-6.5049,-6.5383,-6.5072,-6.5071,-6.507,-6.507,0,-6.4564,-6.4676,-6.4637,-6.4711,-6.4835,-6.4789,-6.4912,-6.4912,-6.4931,-6.5004,-6.4934,-6.5003,-6.4953,-6.5017,-6.499,-6.5104,-6.5118,-6.5111,-6.5103,-6.5118,-6.5119,-6.514,-6.5124,-6.5079,-6.5077,-6.5075,-6.5074,0,-6.4824,-6.4802,-6.4929,-6.4939,-6.4944,-6.5035,-6.5042,-6.511,-6.5097,-6.519,-6.5208,-6.5187,-6.5259,-6.5229,-6.5304,-6.5286,-6.5433,-6.5404,-6.5425,-6.5418,-6.5528,-6.5519,-6.5889,-6.5935,-6.5593,-6.5596,-6.5599,0,-6.4988,-6.5074,-6.5094,-6.5138,-6.5155,-6.5227,-6.5267,-6.5225,-6.5269,-6.5305,-6.537,-6.5436,-6.5487,-6.5606,-6.5596,-6.5653,-6.5626,-6.5751,-6.5634,-6.5647,-6.5629,-6.5625,-6.5633,-6.5775,-6.5779,-6.5783,-6.5785,0,-6.5283,-6.5268,-6.533,-6.5388,-6.5438,-6.5481,-6.5517,-6.5557,-6.5517,-6.5569,-6.5643,-6.5683,-6.5761,-6.5828,-6.5879,-6.5887,-6.5831,-6.5822,-6.585,-6.5868,-6.5877,-6.5874,-6.5491,-6.5814,-6.5811,-6.5809,-6.5808,-6.5806,-6.5501,-6.5573,-6.5599,-6.567,-6.5694,-6.573,-6.5796,-6.5792,-6.5853,-6.5915,-6.5886,-6.5972,-6.5995,-6.6058,-6.6075,-6.614,-6.6091,-6.6131,-6.6142,-6.6153,-6.6168,-6.5866,-6.6149,-6.6148,-6.6147,-6.6147,-6.6146,0,-6.5793,-6.5806,-6.5872,-6.5927,-6.5982,-6.5925,-6.5963,-6.6012,-6.609,-6.6118,-6.617,-6.6255,-6.632,-6.6316,-6.6375,-6.6428,-6.6404,-6.6445,-6.6441,-6.6445,-6.6208,-6.6179,-6.6465,-6.6465,-6.6465,-6.6464,-6.6464,-6.6464,-6.5952,-6.6072,-6.606,-6.6191,-6.6202,-6.6288,-6.6315,-6.6347,-6.6369,-6.6469,-6.6523,-6.652,-6.6535,-6.6595,-6.6651,-6.6648,-6.6673,-6.6726,-6.6713,-6.6492,-6.6461,-6.6431,-6.6403,-6.6731,-6.6732,-6.6944,-6.6946,-6.6947]}]]